Weather Roundup
Issued by NWS Corpus Christi, TX

Home | Current Version | Previous Version | Text Only | Print | Product List | Glossary On
Versions: 1 2 3 4 5 6 7 8 9 10 11 12 13 14 15 16 17 18 19 20 21 22 23 24 25 26 27 28 29 30 31 32 33 34 35 36 37 38 39 40 41 42 43 44 45 46 47 48 49 50
000
ASUS44 KCRP 220910
HRRCRP

SOUTH TEXAS REGIONAL WEATHER ROUNDUP
NATIONAL WEATHER SERVICE CORPUS CHRISTI TX
400 AM CDT FRI MAY 22 2015


TXZ229>244-221000-
...CORPUS CHRISTI AREA OBSERVATIONS...

CITY           SKY/WX    TMP DP  RH WIND       PRES   REMARKS
CORPUS CHRISTI CLOUDY    74  73  97 N5        30.02S THUNDER
NAS CORPUS CHR CLOUDY    75  74  96 SE8       30.02S
ROCKPORT       CLOUDY    79  74  84 SE6       30.01F
KINGSVILLE NAS MOCLDY    75  75 100 N5        30.02F FOG
ALICE          MOCLDY    75  72  90 NE5       30.02F
FALFURRIAS     CLOUDY    74  73  96 CALM      30.02F VSB 3/4
$$

...VICTORIA AREA OBSERVATIONS...

CITY           SKY/WX    TMP DP  RH WIND       PRES   REMARKS
VICTORIA       CLOUDY    71  69  93 NE8       30.05F
BEEVILLE       CLOUDY    73  73 100 NE7       30.04S
PLEASANTON     CLOUDY    65  63  91 NE7       30.06F FOG
SAN ANTONIO    CLOUDY    65  62  90 NE6       30.08F
$$

...LAREDO AREA OBSERVATIONS...

CITY           SKY/WX    TMP DP  RH WIND       PRES   REMARKS
LAREDO         CLOUDY    73  70  91 E12       30.01F
COTULLA        CLOUDY    69  66  90 E9        30.01F
DEL RIO        CLOUDY    68  64  87 E10       30.00F
MCALLEN        MOCLDY    79  74  84 CALM      30.03R
HEBBRONVILLE   LGT RAIN  73  72  96 CALM      30.05F VSB 1
$$

...OTHER TEXAS OBSERVATIONS...

CITY           SKY/WX    TMP DP  RH WIND       PRES   REMARKS
BROWNSVILLE    CLOUDY    75  74  96 NE5       29.99S FOG
HOUSTON        CLOUDY    69  66  90 E7        30.09S
COL. STATION   CLOUDY    66  64  93 E8        30.09S
AUSTIN         DRZL/FOG  62  62 100 NE6       30.09F VSB 1
WACO           CLOUDY    62  60  93 E8        30.11S FOG
FORT WORTH     CLOUDY    60  59  96 SE10      30.13R
WICHITA FALLS  CLOUDY    59  54  83 E8        30.13S
LUBBOCK        CLOUDY    52  51  97 NE6       30.11S
EL PASO        CLEAR     56  51  84 SE7       30.04R
$$

...MARINE OBSERVATIONS...

STATION/POSITION TIME  SKY/WX   TEMP    WIND        PRES    VSBY  WAVE   SWELL
                                AIR SEA DIR/SP/G                  HT/PER HT/PER
                 (UTC)          (F)     (DEG/KT/KT) (MB)    (MI)  (FT/S) (FT/S)
PORT ARANSAS     0900            80 81  130/ 11/ 12 1016.8F
BUOY 90 E PORT A 0850            79 80   90/ 12/ 12 1017.1R         3/ 5   2/ 6
BUOY 45 SE BAFFI 0850            80 80  120/ 10/ 14 1015.5F         3/ 4   2/ 6
BUOY 200 E PT IS 0850            81 81  120/ 12/ 14 1015.8S         3/ 6   2/ 6
BUOY 15 E GALVES 0850            76 80   60/ 16/ 19 1017.6R         3/ 5
$$


USA.gov is the U.S. government's official web portal to all federal, state and local government web resources and services.